CW9356 Weather Reports


time (UTC)temp
C
wind
direction
speed
KPH
gust
KPH
rain 1hr
cm
rain 24hr
cm
rain mn
cm
humidity
%
barometer
mb
20260507192121 23 138 0.0 1.6 0.00 0.00 0.00 36 1009.9
20260507190617 22 283 0.0 1.6 0.00 0.00 0.00 34 1010.2
20260507185156 22 84 0.0 6.4 0.00 0.00 0.00 39 1010.5
20260507183630 21 244 0.0 4.8 0.00 0.00 0.00 37 1010.9
20260507182224 21 292 0.0 3.2 0.00 0.00 0.00 36 1011.1
20260507180619 20 265 0.0 4.8 0.00 0.00 0.00 39 1011.4
20260507175133 20 330 0.0 4.8 0.00 0.00 0.00 41 1011.6
20260507173652 19 132 0.0 8.0 0.00 0.00 0.00 42 1012.0
20260507172125 19 165 0.0 3.2 0.00 0.00 0.00 44 1012.3
20260507170624 18 225 0.0 1.6 0.00 0.00 0.00 46 1012.6
20260507165118 17 140 0.0 4.8 0.00 0.00 0.00 47 1012.8
20260507163714 17 113 0.0 4.8 0.00 0.00 0.00 48 1012.8
20260507163632 17 113 0.0 4.8 0.00 0.00 0.00 48 1012.8
20260507162130 16 136 0.0 4.8 0.00 0.00 0.00 49 1013.2
20260507160706 16 158 0.0 3.2 0.00 0.00 0.00 50 1013.7
20260507155158 15 136 0.0 3.2 0.00 0.00 0.00 55 1013.7
20260507153635 15 143 0.0 4.8 0.00 0.00 0.00 56 1014.0
20260507152128 14 251 0.0 8.0 0.00 0.00 0.00 59 1014.2
20260507150703 13 292 0.0 3.2 0.00 0.00 0.00 61 1014.4
20260507150620 13 292 0.0 3.2 0.00 0.00 0.00 61 1014.4
20260507145219 13 46 0.0 3.2 0.00 0.00 0.00 65 1014.5
20260507145116 13 46 0.0 3.2 0.00 0.00 0.00 65 1014.5
20260507143630 12 109 0.0 3.2 0.00 0.00 0.00 66 1014.8
20260507142124 12 300 0.0 1.6 0.00 0.00 0.00 71 1014.9
20260507140724 11 314 0.0 3.2 0.00 0.00 0.00 74 1015.0
20260507135215 10 317 0.0 0.0 0.00 0.00 0.00 79 1015.2
20260507133628 9 331 0.0 0.0 0.00 0.00 0.00 83 1015.1
20260507132126 8 119 0.0 3.2 0.00 0.00 0.00 85 1015.2
20260507130642 7 94 0.0 0.0 0.00 0.00 0.00 87 1015.3
20260507125119 7 80 0.0 0.0 0.00 0.00 0.00 88 1015.2
20260507123635 6 30 0.0 0.0 0.00 0.00 0.00 88 1015.2
20260507122208 6 163 0.0 0.0 0.00 0.00 0.00 88 1015.1
20260507122126 6 163 0.0 0.0 0.00 0.00 0.00 88 1015.1
20260507120625 6 121 0.0 0.0 0.00 0.00 0.00 88 1015.2
20260507115118 5 153 0.0 0.0 0.00 0.00 0.00 88 1015.3
20260507113617 5 125 0.0 0.0 0.00 0.00 0.00 88 1015.4
20260507112130 5 155 0.0 0.0 0.00 0.00 0.00 87 1015.2
20260507110630 5 153 0.0 0.0 0.00 0.00 0.00 87 1015.4
20260507105123 6 154 0.0 0.0 0.00 0.00 0.00 87 1015.5
20260507103618 6 153 0.0 0.0 0.00 0.00 0.00 87 1015.4
20260507102237 6 174 0.0 0.0 0.00 0.00 0.00 86 1015.5
20260507102154 6 174 0.0 0.0 0.00 0.00 0.00 86 1015.5
20260507100628 6 174 0.0 0.0 0.00 0.00 0.00 85 1015.5
20260507095122 6 174 0.0 0.0 0.00 0.05 0.00 85 1015.7
20260507093641 6 131 0.0 0.0 0.00 0.05 0.00 85 1015.8
20260507092154 6 132 0.0 0.0 0.00 0.05 0.00 85 1015.7
20260507090647 6 131 0.0 0.0 0.00 0.05 0.00 85 1015.9
20260507085204 6 138 0.0 0.0 0.00 0.10 0.00 85 1016.0
20260507083617 6 153 0.0 0.0 0.00 0.10 0.00 85 1016.1
20260507082115 7 236 0.0 0.0 0.00 0.10 0.00 84 1016.4
20260507080629 7 240 0.0 0.0 0.00 0.10 0.00 84 1016.5
20260507075123 7 241 0.0 0.0 0.00 0.10 0.00 83 1016.6
20260507073642 7 240 0.0 0.0 0.00 0.10 0.00 82 1016.7
20260507072134 7 240 0.0 0.0 0.00 0.10 0.00 81 1016.7
20260507070633 7 240 0.0 0.0 0.00 0.10 0.00 81 1016.9
20260507065208 8 240 0.0 0.0 0.00 0.10 0.00 80 1017.0
20260507065125 8 240 0.0 0.0 0.00 0.10 0.00 80 1017.0
20260507063620 8 240 0.0 0.0 0.00 0.10 0.00 80 1017.1
20260507062117 8 304 0.0 0.0 0.00 0.10 0.00 79 1017.2
20260507060713 8 303 0.0 0.0 0.00 0.10 0.00 78 1017.1
20260507055225 9 303 0.0 0.0 0.00 0.10 0.00 76 1017.2
20260507053658 9 303 0.0 0.0 0.00 0.10 0.00 76 1017.3
20260507052132 9 303 0.0 0.0 0.00 0.10 0.00 76 1017.3
20260507050708 9 303 0.0 0.0 0.00 0.10 0.00 76 1017.2
20260507045141 9 303 0.0 0.0 0.00 0.10 0.10 76 1017.3
20260507043639 9 303 0.0 0.0 0.00 0.10 0.10 76 1017.3
20260507042132 9 311 0.0 0.0 0.00 0.10 0.10 76 1017.3
20260507040631 9 311 0.0 0.0 0.00 0.10 0.10 76 1017.1
20260507035146 9 311 0.0 0.0 0.00 0.15 0.10 77 1017.2
20260507033637 9 312 0.0 0.0 0.00 0.15 0.10 79 1017.2
20260507032133 9 312 0.0 0.0 0.00 0.15 0.10 79 1017.3
20260507030729 9 312 0.0 0.0 0.00 0.15 0.10 77 1017.2
20260507030647 9 312 0.0 0.0 0.00 0.15 0.10 77 1017.2
20260507025119 10 312 0.0 0.0 0.00 0.23 0.10 74 1017.0
20260507023658 10 311 0.0 0.0 0.00 0.23 0.10 73 1016.8
20260507022130 10 312 0.0 0.0 0.00 0.23 0.10 67 1016.8
20260507020630 10 312 0.0 0.0 0.00 0.23 0.10 65 1016.9
20260507015125 11 312 0.0 0.0 0.00 0.25 0.10 64 1016.7
20260507013640 11 312 0.0 0.0 0.00 0.25 0.10 61 1016.5
20260507012117 12 312 0.0 0.0 0.00 0.25 0.10 59 1016.3
20260507010653 12 312 0.0 0.0 0.00 0.25 0.10 59 1016.1
20260507005129 13 312 0.0 0.0 0.00 0.25 0.10 57 1016.2
20260507003645 13 313 0.0 0.0 0.00 0.25 0.10 55 1016.2
20260507002122 13 314 0.0 0.0 0.00 0.25 0.10 52 1016.1
20260507000618 14 319 0.0 0.0 0.00 0.25 0.10 51 1016.0
20260506235132 15 281 0.0 0.0 0.00 0.25 0.10 50 1016.2
20260506233631 14 319 0.0 0.0 0.00 0.25 0.10 53 1015.7
20260506232126 14 311 0.0 0.0 0.00 0.25 0.10 50 1016.1
20260506230626 15 325 0.0 0.0 0.00 0.25 0.10 46 1016.0
20260506225119 15 309 0.0 0.0 0.00 0.25 0.10 46 1016.1
20260506223639 16 305 0.0 0.0 0.00 0.25 0.10 45 1016.0
20260506222153 16 67 0.0 0.0 0.00 0.25 0.10 47 1015.9
20260506220646 15 324 0.0 0.0 0.00 0.25 0.10 48 1016.0
20260506215143 15 331 0.0 0.0 0.00 0.25 0.10 43 1016.2
20260506213719 15 315 0.0 0.0 0.00 0.25 0.10 42 1016.2
20260506213616 15 315 0.0 0.0 0.00 0.25 0.10 42 1016.2
20260506212132 15 316 0.0 0.0 0.00 0.25 0.10 48 1016.5
20260506210617 16 330 0.0 1.6 0.00 0.25 0.10 44 1016.5
20260506205153 16 325 0.0 3.2 0.00 0.25 0.10 43 1016.8
20260506203628 16 18 0.0 0.0 0.00 0.25 0.10 45 1017.0
20260506202230 15 284 0.0 3.2 0.00 0.25 0.10 46 1017.0
20260506200645 15 296 0.0 0.0 0.00 0.25 0.10 48 1017.5
20260506195159 15 264 0.0 0.0 0.00 0.25 0.10 47 1017.7
20260506193618 15 28 0.0 0.0 0.00 0.25 0.10 53 1017.8
20260506192154 14 42 0.0 0.0 0.00 0.25 0.10 52 1017.8